FW3135 Weather Reports


time (UTC)temp
C
wind
direction
speed
KPH
gust
KPH
rain 1hr
cm
rain 24hr
cm
rain mn
cm
humidity
%
barometer
mb
20260905064345 21 82 3.2 9.7 0.00 0.00 0.00 86 1019.6
20260905063822 20 127 1.6 4.8 0.00 0.00 0.00 86 1019.5
20260905063325 20 46 0.0 0.0 0.00 0.00 0.00 86 1019.6
20260905062821 20 300 0.0 0.0 0.00 0.00 0.00 86 1019.7
20260905062318 20 299 0.0 0.0 0.00 0.00 0.00 85 1019.5
20260905061819 20 299 0.0 0.0 0.00 0.00 0.00 85 1019.5
20260905061316 20 302 0.0 0.0 0.00 0.00 0.00 85 1019.4
20260905060838 20 302 0.0 0.0 0.00 0.00 0.00 85 1019.3
20260905055828 21 302 0.0 4.8 0.00 0.00 0.00 83 1019.2
20260905055328 21 259 1.6 4.8 0.00 0.00 0.00 83 1019.2
20260905052321 22 257 3.2 14.5 0.00 0.00 0.00 78 1019.0
20260905051848 22 360 4.8 16.1 0.00 0.00 0.00 82 1019.0
20260905050831 21 84 1.6 8.0 0.00 0.00 0.00 87 1019.0
20260905045321 20 157 0.0 0.0 0.00 0.00 0.00 90 1019.2
20260905044930 20 157 0.0 4.8 0.00 0.00 0.00 90 1019.3
20260905044846 20 157 0.0 4.8 0.00 0.00 0.00 90 1019.3
20260905044322 20 157 1.6 4.8 0.00 0.00 0.00 90 1019.4
20260905035840 20 233 3.2 4.8 0.00 0.00 0.00 89 1019.5
20260905035335 20 232 0.0 4.8 0.00 0.00 0.00 89 1019.5
20260905034845 20 137 0.0 0.0 0.00 0.00 0.00 88 1019.5
20260905034331 20 193 0.0 0.0 0.00 0.00 0.00 88 1019.6
20260905033823 20 193 0.0 0.0 0.00 0.00 0.00 88 1019.5
20260905033318 20 193 0.0 0.0 0.00 0.00 0.00 88 1019.4
20260905032852 20 193 0.0 0.0 0.00 0.00 0.00 88 1019.4
20260905032326 20 193 0.0 0.0 0.00 0.00 0.00 88 1019.4
20260905001315 21 236 6.4 12.9 0.00 0.00 0.00 80 1020.7
20260905000845 21 360 3.2 12.9 0.00 0.00 0.00 79 1020.7
20260905000355 21 217 3.2 6.4 0.00 0.00 0.00 78 1020.6
20260904235909 22 249 1.6 8.0 0.00 0.00 0.00 78 1020.7
20260904235359 22 211 1.6 8.0 0.00 0.00 0.00 76 1020.6
20260904234833 22 260 3.2 6.4 0.00 0.00 0.00 76 1020.6
20260904234348 22 268 1.6 4.8 0.00 0.00 0.00 75 1020.6
20260904233834 22 329 0.0 6.4 0.00 0.00 0.00 75 1020.7
20260904233319 23 329 3.2 8.0 0.00 0.00 0.00 74 1020.8
20260904232828 23 360 4.8 8.0 0.00 0.00 0.00 72 1020.9
20260904232348 23 78 0.0 9.7 0.00 0.00 0.00 71 1020.5
20260904231900 23 87 4.8 9.7 0.00 0.00 0.00 72 1020.5
20260904230852 23 86 8.0 9.7 0.00 0.00 0.00 76 1020.3
20260904230332 22 360 1.6 4.8 0.00 0.00 0.00 77 1020.3
20260904225830 22 81 3.2 8.0 0.00 0.00 0.00 77 1020.4
20260904225350 22 154 1.6 8.0 0.00 0.00 0.00 77 1020.5
20260904224844 22 65 1.6 6.4 0.00 0.00 0.00 77 1020.4
20260904224359 22 34 3.2 6.4 0.00 0.00 0.00 78 1020.4
20260904223826 22 86 4.8 9.7 0.00 0.00 0.00 78 1020.4
20260904223328 22 248 1.6 12.9 0.00 0.00 0.00 78 1020.4
20260904222824 22 360 8.0 12.9 0.00 0.00 0.00 78 1020.4
20260904222347 22 360 3.2 8.0 0.00 0.00 0.00 78 1020.6
20260904221822 22 110 3.2 6.4 0.00 0.00 0.00 77 1020.6
20260904221345 22 178 3.2 6.4 0.00 0.00 0.00 77 1020.6
20260904220827 22 123 3.2 6.4 0.00 0.00 0.00 77 1020.7
20260904220351 22 196 3.2 4.8 0.00 0.00 0.00 76 1020.8
20260904215852 22 250 1.6 8.0 0.00 0.00 0.00 76 1020.8
20260904215348 22 336 4.8 12.9 0.00 0.00 0.00 76 1020.7
20260904214829 22 314 3.2 12.9 0.00 0.00 0.00 75 1020.8
20260904214346 22 360 6.4 9.7 0.00 0.00 0.00 75 1020.9
20260904213829 23 355 6.4 30.6 0.00 0.00 0.00 74 1020.8
20260904213325 24 360 16.1 30.6 0.00 0.00 0.00 69 1020.9
20260904212830 26 173 0.0 4.8 0.00 0.00 0.00 65 1020.4
20260904212345 26 360 0.0 0.0 0.00 0.00 0.00 62 1020.4
20260904211826 26 157 0.0 0.0 0.00 0.00 0.00 61 1020.4
20260904211323 26 157 0.0 4.8 0.00 0.00 0.00 63 1020.4
20260904210826 26 157 3.2 4.8 0.00 0.00 0.00 59 1020.3
20260904210327 26 158 1.6 8.0 0.00 0.00 0.00 60 1020.3
20260904205824 26 158 3.2 8.0 0.00 0.00 0.00 61 1020.3
20260904205318 27 144 3.2 6.4 0.00 0.00 0.00 60 1020.4
20260904204822 27 78 0.0 0.0 0.00 0.00 0.00 60 1020.3
20260904204317 27 78 0.0 0.0 0.00 0.00 0.00 54 1020.3
20260904203821 27 78 0.0 3.2 0.00 0.00 0.00 55 1020.2
20260904203323 27 78 0.0 4.8 0.00 0.00 0.00 56 1020.3
20260904202839 27 78 1.6 6.4 0.00 0.00 0.00 58 1020.3
20260904202321 26 84 1.6 6.4 0.00 0.00 0.00 60 1020.2
20260904201818 26 81 1.6 6.4 0.00 0.00 0.00 63 1020.1
20260904201315 25 79 1.6 3.2 0.00 0.00 0.00 67 1020.1
20260904200839 25 344 0.0 0.0 0.00 0.00 0.00 69 1020.0
20260904200320 25 344 0.0 0.0 0.00 0.00 0.00 69 1020.0
20260904195815 25 344 0.0 0.0 0.00 0.00 0.00 69 1019.9
20260904195318 25 344 0.0 3.2 0.00 0.00 0.00 70 1019.9
20260904194838 25 344 0.0 6.4 0.00 0.00 0.00 69 1019.9
20260904194339 25 344 3.2 6.4 0.00 0.00 0.00 69 1019.8
20260904193815 25 338 1.6 6.4 0.00 0.00 0.00 67 1019.8
20260904193332 26 256 1.6 4.8 0.00 0.00 0.00 66 1019.8
20260904192836 26 259 0.0 0.0 0.00 0.00 0.00 67 1019.7
20260904192313 26 259 0.0 0.0 0.00 0.00 0.00 67 1019.6
20260904191836 26 259 0.0 0.0 0.00 0.00 0.00 67 1019.6
20260904191332 26 259 0.0 0.0 0.00 0.00 0.00 67 1019.6
20260904190829 26 259 0.0 0.0 0.00 0.00 0.00 65 1019.6
20260904190354 27 259 0.0 0.0 0.00 0.00 0.00 64 1019.7
20260904185826 27 259 0.0 0.0 0.00 0.00 0.00 64 1019.7
20260904185320 27 259 0.0 0.0 0.00 0.00 0.00 64 1019.8
20260904184822 27 259 0.0 0.0 0.00 0.00 0.00 65 1019.7
20260904184335 27 258 0.0 3.2 0.00 0.00 0.00 64 1019.7
20260904183930 27 258 0.0 4.8 0.00 0.00 0.00 63 1019.8
20260904183847 27 258 0.0 4.8 0.00 0.00 0.00 63 1019.8
20260904183343 28 258 3.2 4.8 0.00 0.00 0.00 62 1019.8
20260904182828 28 128 1.6 3.2 0.00 0.00 0.00 61 1019.7
20260904182333 28 127 0.0 0.0 0.00 0.00 0.00 63 1019.7
20260904181842 28 127 0.0 1.6 0.00 0.00 0.00 63 1019.8
20260904181405 28 127 0.0 4.8 0.00 0.00 0.00 64 1019.6
20260904180828 28 127 3.2 4.8 0.00 0.00 0.00 64 1019.7
20260904180324 28 90 0.0 1.6 0.00 0.00 0.00 63 1019.8
20260904175822 28 90 0.0 1.6 0.00 0.00 0.00 62 1019.8
20260904175339 28 90 0.0 3.2 0.00 0.00 0.00 63 1019.8
20260904174832 28 88 1.6 4.8 0.00 0.00 0.00 64 1020.0
20260904174316 27 89 1.6 4.8 0.00 0.00 0.00 65 1020.4
20260904173828 27 87 0.0 3.2 0.00 0.00 0.00 67 1020.3
20260904173323 26 86 1.6 3.2 0.00 0.00 0.00 68 1020.4
20260904172831 26 86 0.0 4.8 0.00 0.00 0.00 70 1020.4
20260904172347 25 86 1.6 4.8 0.00 0.00 0.00 72 1020.5
20260904171814 25 71 1.6 4.8 0.00 0.00 0.00 73 1020.4
20260904171335 25 227 0.0 6.4 0.00 0.00 0.00 73 1020.5
20260904170829 25 227 3.2 6.4 0.00 0.00 0.00 72 1020.7
20260904170327 24 253 0.0 9.7 0.00 0.00 0.00 73 1020.6
20260904165815 24 360 3.2 16.1 0.00 0.00 0.00 71 1020.7
20260904165329 26 360 3.2 12.9 0.00 0.00 0.00 69 1020.8
20260904140351 21 360 6.4 16.1 0.00 0.00 0.00 83 1023.0
20260904135859 21 360 4.8 12.9 0.00 0.00 0.00 83 1022.9
20260904134923 22 255 4.8 24.1 0.00 0.00 0.00 82 1022.4
20260904132321 23 34 3.2 8.0 0.00 0.00 0.00 82 1021.8
20260904113322 21 264 1.6 12.9 0.00 0.00 0.00 85 1023.1
20260904110324 21 288 1.6 3.2 0.00 0.00 0.00 83 1023.2
20260904105840 21 291 0.0 4.8 0.00 0.00 0.00 83 1023.1
20260904102320 23 175 4.8 12.9 0.00 0.00 0.00 76 1023.0
20260904101813 23 156 8.0 12.9 0.00 0.00 0.00 73 1022.7
20260904101337 25 167 3.2 9.7 0.00 0.00 0.00 70 1022.2
20260904100832 25 222 0.0 0.0 0.00 0.00 0.00 71 1021.9
20260904100325 25 222 0.0 1.6 0.00 0.00 0.00 72 1021.4
20260904095826 24 275 0.0 9.7 0.00 0.00 0.00 73 1021.2
20260904095322 24 325 3.2 9.7 0.00 0.00 0.00 73 1020.7
20260904094824 24 42 4.8 16.1 0.00 0.00 0.00 75 1020.7
20260904094326 23 360 6.4 16.1 0.00 0.00 0.00 76 1021.0
20260904093819 23 93 4.8 17.7 0.00 0.00 0.00 78 1021.2
20260904093323 22 360 9.7 19.3 0.00 0.00 0.00 81 1021.1
20260904092819 22 82 9.7 16.1 0.00 0.00 0.00 84 1021.4
20260904092321 21 73 4.8 14.5 0.00 0.00 0.00 87 1021.6
20260904091817 21 71 6.4 14.5 0.00 0.00 0.00 87 1021.9
20260904091314 20 360 4.8 19.3 0.00 0.00 0.00 87 1022.5
20260904090818 20 78 1.6 19.3 0.00 0.00 0.00 86 1022.6
20260904090321 21 360 8.0 27.4 0.00 0.00 0.00 86 1022.9
20260904085816 21 131 14.5 27.4 0.00 0.00 0.00 85 1023.1
20260904085339 21 35 4.8 9.7 0.00 0.00 0.00 89 1022.0
20260904084818 20 61 3.2 12.9 0.00 0.00 0.00 90 1022.2
20260904084344 20 74 1.6 16.1 0.00 0.00 0.00 90 1022.3